Weather in Bratskoye

Russia / Tver Oblast     58°17′01″N   37°08′42″E
temp.,
°C
wind,
m/s
gust,
m/s
humid.,
%
clouds,
%
prec.,
mm/h
press.,
hPa
HPBL,
m
14 may, fri
fri1400:00+11s298830 0.3 1014297
03:00+9s399556 0.3 1016252
06:00+9s38939 0.0 1016321
09:00+14ssw476321 0.0 1017917
12:00+17ssw4650100 0.0 10161580
15:00+19s354458 0.0 10162002
18:00+19sse2553100 0.0 10141484
21:00+14e3981100 0.1 1013223
15 may, sat
sat1500:00+13sse3109498 0.3 1012325
03:00+12e2898100 0.3 1011220
06:00+13ese3797100 0.0 1011269
09:00+16se3688100 0.0 1010488
12:00+20s477258 1.0 10081194
15:00+20sse3677100 3.6 1007910
18:00+19s3781100 2.9 1006467
21:00+14s3119095 4.6 1006216
16 may, sun
sun1600:00+12s310939 0.4 1007207
03:00+11s3109843 0.4 1007263
06:00+12s4109775 0.0 1008487
09:00+13ssw5988100 0.0 1008720
12:00+15ssw4979100 0.1 10091012
15:00+19sw586447 0.6 10091352
18:00+18wsw47747 0.6 1009982
21:00+14sw27965 0.6 1011151
17 may, mon
mon1700:00+12sw399793 0.0 1012219
03:00+11sw279819 0.0 1013163
06:00+13sw24932 0.0 1014120
09:00+18ssw23715 0.0 1015613
12:00+21s2356100 0.0 10141189
15:00+22sse235272 0.0 10141447
18:00+21ese366137 0.0 1013861
21:00+15e3108559 0.1 1012214
18 may, tue
tue1800:00+16ese41489100 0.1 1011375
03:00+15ese41294100 0.1 1009299
06:00+16se4138694 0.0 1008376
09:00+20sse486798 0.0 1008593
12:00+22s61072100 0.7 10091273
15:00+23s4761100 1.1 10091264
18:00+21ssw1181100 2.4 100753
21:00+16e2896100 5.3 1006279